Location: Saalfelden+am+Steinernen+Meer
(47.4274°N, 12.8411°E)
Time: 03:38:47
(UTC+02:00)

Tiangong - Visible Passes

Search period start: 01 July 2022 00:00
Search period end: 11 July 2022 00:00
Orbit: 384 x 388 km, 41.5° (Epoch: 30 June)

Date Brightness Start Highest point End Pass type
(mag) Time Alt. Az. Time Alt. Az. Time Alt. Az.
01 Jul 2.9 22:51:20 10° WSW 22:53:32 17° SSW 22:53:51 17° S visible
02 Jul 2.6 21:51:53 10° WSW 21:54:24 22° SSW 21:56:56 10° SE visible
03 Jul 3.3 22:30:02 10° SW 22:31:29 13° SSW 22:32:29 11° S visible
